NOAA 16 DEB, 41358

Orbit data source: Space-Track

NOAA 16 DEB, 41358 is space debris in SSO originally from a launch on Thu, 21 Sep 2000 UTC launched from the Air Force Western Test Range (AFWTR). Debris objects in space refer to the collection of defunct objects orbiting the Earth. Examples of debris include non-operational satellites, rocket bodies, and fragments generated from explosions, collisions, or faulty payload assembly.

Loading next visibility...
Identifier
41358, 2000-055JB
Orbit
SSO
Country
Flag of USUS
Related business
Manufacturer
Unknown
Mission
Spacecraft
Bus & Motor
Unknown
Mass
Unknown
Launch date (UTC)
2000-09-21 (25 years ago)
Launch vehicle
Unknown
Launch site
Air Force Western Test Range (AFWTR)
Object type
Payload
Rocket body
Debris
Shape & HBR
Unknown shape, 0.1 m
Radar Cross Section
Small (<0.1 m²)

Expand to show TLE details & history
Last TLE update: 2 days ago

TLE from 2 days ago
0 NOAA 16 DEB
1 41358U 00055JB  25286.42087504  .00004924  00000-0  20752-2 0  9991
2 41358  98.6385 343.3912 0013964 332.1543  27.8889 14.26085051500998
Epoch: 2025-10-13T10:06Z
TLE epoch observation values (Epoch: 2025-10-13T10:06:03.603Z)
Latitude
0.00005°
Longitude
169.65228°
Altitude
798.908 km
Speed
7.459 km/s
True Right ascension
22h 53m 33s
True Declination
0° 00' 00"
Sunlit
Object was in full shadow at epoch
Visualization orbit readout
Latitude
Unknown
Longitude
Unknown
Altitude
Unknown
Speed
Unknown
Apparent Right ascension
Unknown
Apparent Declination
Unknown
Sunlit
N/A
Visualization observer readout
Local Sidereal Time
06:25:19
Azimuth
Unknown
Elevation
Unknown
Doppler factor
Unknown
Orbital elements
Apogee altitude
812.02 km
Perigee altitude
791.968 km
Semi-major axis
7,180.131 km
Eccentricity
0.0014
Inclination
98.6385°
RAAN
343.3912°
Arg. of periapsis
332.1543°
True anomaly
27.96386°
Mean anomaly
27.8889°
Eccentric anomaly
27.92637°
Mean motion
3.56734 °/min
Orbital period
100.92 mins
BSTAR
0.0020752
Loading maneuver chart data...
Computing Atmospheric mass density...

Documentation

Showing up to 5 results
|